HJ3GNC-16 Weather Reports


Display with metric or nautical units.
time (UTC)temp
F
wind
direction
speed
MPH
gust
MPH
rain 1hr
in
rain 24hr
in
rain mn
in
humidity
%
barometer
mb
20260504211229 86 190 0.0 0.0 0.00 0.00 0.00 54 1009.0
20260504205645 88 180 0.0 0.0 0.00 0.00 0.00 55 1009.0
20260504204049 88 180 0.0 0.0 0.00 0.00 0.00 55 1009.0
20260504202504 88 180 0.0 0.0 0.00 0.00 0.00 55 1010.0
20260504200851 88 180 0.0 0.0 0.00 0.00 0.00 55 1010.0
20260504195307 88 190 0.0 0.0 0.00 0.00 0.00 51 1010.0
20260504193725 86 190 0.0 0.0 0.00 0.00 0.00 54 1010.0
20260504192147 86 190 0.0 0.0 0.00 0.00 0.00 54 1010.0
20260504190555 86 190 0.0 0.0 0.00 0.00 0.00 54 1010.0
20260504185014 86 210 0.0 0.0 0.00 0.00 0.00 54 1010.0
20260504183433 86 210 0.0 0.0 0.00 0.00 0.00 54 1010.0
20260504181848 86 210 0.0 0.0 0.00 0.00 0.00 54 1012.0
20260504180306 86 190 0.0 0.0 0.00 0.00 0.00 54 1011.0
20260504174724 86 190 0.0 0.0 0.00 0.00 0.00 54 1011.0
20260504173140 86 190 0.0 0.0 0.00 0.00 0.00 54 1011.0
20260504171555 86 190 0.0 0.0 0.00 0.00 0.00 54 1013.0
20260504151022 77 20 0.0 0.0 0.00 0.00 0.00 73 1014.0
20260504141327 77 350 0.0 0.0 0.00 0.00 0.00 73 1014.0
20260504100454 77 20 0.0 0.0 0.00 0.00 0.00 73 1012.0
20260504081339 77 0 0.0 0.0 0.00 0.00 0.00 73 1011.0
20260504050204 79 210 0.0 0.0 0.00 0.00 0.00 69 1013.0
20260504044618 79 210 0.0 0.0 0.00 0.00 0.00 69 1013.0
20260504043033 79 210 0.0 0.0 0.00 0.00 0.00 69 1013.0
20260504041448 79 210 0.0 0.0 0.00 0.00 0.00 69 1013.0
20260504035905 81 160 0.0 0.0 0.00 0.00 0.00 65 1013.0
20260504034310 81 160 0.0 0.0 0.00 0.00 0.00 65 1013.0
20260504032720 81 160 0.0 0.0 0.00 0.00 0.00 65 1013.0
20260504031134 81 160 0.0 0.0 0.00 0.00 0.00 65 1013.0
20260504025541 81 190 0.0 0.0 0.00 0.00 0.00 69 1013.0
20260504023910 81 190 0.0 0.0 0.00 0.00 0.00 69 1013.0
20260504022322 81 190 0.0 0.0 0.00 0.00 0.00 69 1012.0
20260504020719 81 190 0.0 0.0 0.00 0.00 0.00 69 1012.0
20260504015129 81 170 0.0 0.0 0.00 0.00 0.00 69 1012.0
20260504013527 81 170 0.0 0.0 0.00 0.00 0.00 69 1012.0
20260504011922 81 170 0.0 0.0 0.00 0.00 0.00 69 1011.0
20260504010248 81 200 0.0 0.0 0.00 0.00 0.00 69 1011.0
20260504004646 82 200 0.0 0.0 0.00 0.00 0.00 65 1011.0
20260504001138 82 200 0.0 0.0 0.00 0.00 0.00 65 1009.0
20260503235525 82 190 0.0 0.0 0.00 0.00 0.00 65 1009.0
20260503233906 84 190 0.0 0.0 0.00 0.00 0.00 58 1009.0
20260503230728 84 190 0.0 0.0 0.00 0.00 0.00 58 1009.0
20260503225132 84 200 0.0 0.0 0.00 0.00 0.00 58 1009.0
20260503223545 84 200 0.0 0.0 0.00 0.00 0.00 58 1009.0
20260503222002 84 200 0.0 0.0 0.00 0.00 0.00 58 1008.0
20260503220412 84 210 0.0 0.0 0.00 0.00 0.00 58 1008.0
20260503213243 84 210 0.0 0.0 0.00 0.00 0.00 58 1008.0